Voltar ao catálogo

STARLINK-1608

AtivoComunicaçõesVLEO
NORAD 46146·PAYLOAD·🇺🇸 United States

Lançado Aug 18, 2020 de Cape Canaveral Space Force Station

Loading…

Próximas Passagens (próximas 24 horas)

TLE

AtualizadoSource: CelesTrak SupGP

Época: Sep 14, 2026, 20:09 UTC

1 46146C 20057AF  26257.84006944  .00007134  00000+0  14563-3 0  2575
2 46146  53.1520 141.9468 0000845  83.9566 272.9822 15.45592943    16

Acompanhe STARLINK-1608 em tempo real com AllMySat

Download on the App Store